Back to catalog

ONEWEB-0499

AliveCommunicationsPO
NORAD 54117·PAYLOAD·🇬🇧 United Kingdom

Launched Oct 22, 2022 from Satish Dhawan Space Centre

Loading…

Next Passes (next 24 hours)

TLE

FreshSource: CelesTrak SupGP

Epoch: Sep 14, 2026, 14:53 UTC

1 54117C 22138E   26257.62062500 -.00000812  00000+0 -20305-2 0  2578
2 54117  87.9114 287.1545 0002088  88.4837  21.0236 13.19727610    10

Track ONEWEB-0499 in real time with AllMySat

Download on the App Store